STARLINK-35303

Last updated on Mon Oct 20 2025 00:02:07 GMT+0000 (Coordinated Universal Time)

1 65860U 25223G 25292.25002315 -.01908352 00000+0 -21811-1 0 9990 2 65860 53.1600 234.9878 0001142 86.3485 18.5803 15.64690275 3738
UTC large
Height (km)
Speed (km/s)
/
Latitude / Longitude
Inclination (degrees)
Orbital Period (minutes)
Azimuth
Elevation
Range (km)
Doppler Factor

Next 0 passes for location: London (51.5072 / 0.1276)

Sorry there are no passes over London.